EW3582 Weather Reports


time (UTC)temp
C
wind
direction
speed
KPH
gust
KPH
rain 1hr
cm
rain 24hr
cm
rain mn
cm
humidity
%
barometer
mb
20260906023403 7 54 0.0 0.0 0.00 0.46 0.00 81 1025.8
20260906022403 8 54 0.0 0.0 0.00 0.46 0.00 80 1025.8
20260906021902 8 54 0.0 0.0 0.00 0.46 0.00 80 1025.8
20260906021402 8 55 0.0 0.0 0.00 0.48 0.00 80 1025.8
20260906020904 7 54 0.0 0.0 0.00 0.51 0.00 80 1025.7
20260906020402 7 54 0.0 0.0 0.00 0.51 0.00 80 1025.8
20260906015403 7 54 0.0 0.0 0.00 0.51 0.00 81 1025.8
20260906014902 7 54 0.0 0.0 0.00 0.51 0.00 81 1025.8
20260906014401 7 54 0.0 0.0 0.00 0.51 0.00 82 1025.8
20260906013902 7 54 0.0 0.0 0.00 0.51 0.00 81 1025.7
20260906013404 7 55 0.0 0.0 0.00 0.51 0.00 82 1025.7
20260906012905 7 54 0.0 0.0 0.00 0.51 0.00 82 1025.7
20260906012405 8 54 0.0 0.0 0.00 0.51 0.00 82 1025.7
20260906011905 8 54 0.0 0.0 0.00 0.51 0.00 82 1025.6
20260906011405 8 54 0.0 0.0 0.00 0.51 0.00 82 1025.6
20260906010411 8 54 0.0 0.0 0.00 0.51 0.00 82 1025.5
20260906005905 7 54 0.0 0.0 0.00 0.51 0.00 83 1025.5
20260906005404 7 54 0.0 0.0 0.00 0.51 0.00 84 1025.6
20260906004905 7 54 0.0 0.0 0.00 0.51 0.00 84 1025.5
20260906004404 8 54 0.0 0.0 0.00 0.51 0.00 83 1025.5
20260906003404 8 54 0.0 0.0 0.00 0.51 0.00 84 1025.4
20260906002406 8 54 0.0 0.0 0.00 0.51 0.00 84 1025.4
20260906001404 8 54 0.0 0.0 0.00 0.51 0.00 84 1025.3
20260906000906 8 54 0.0 0.0 0.00 0.51 0.00 84 1025.4
20260906000405 8 54 0.0 0.0 0.00 0.51 0.00 84 1025.3
20260905235904 8 54 0.0 0.0 0.00 0.51 0.00 84 1025.3
20260905235407 8 54 0.0 0.0 0.00 0.51 0.00 84 1025.1
20260905234902 8 54 0.0 0.0 0.00 0.51 0.00 84 1025.1
20260905234402 8 54 0.0 0.0 0.00 0.51 0.00 85 1025.1
20260905233905 8 55 0.0 0.0 0.00 0.51 0.00 84 1025.1
20260905233403 8 54 0.0 0.0 0.00 0.51 0.00 84 1025.0
20260905232403 8 54 0.0 0.0 0.00 0.51 0.00 84 1025.0
20260905231903 8 54 0.0 0.0 0.00 0.51 0.00 85 1025.0
20260905231402 8 54 0.0 3.2 0.00 0.51 0.00 84 1024.9
20260905230901 9 54 0.0 3.2 0.00 0.51 0.00 84 1024.9
20260905225902 9 54 0.0 4.8 0.00 0.51 0.00 84 1024.9
20260905225403 9 53 0.0 4.8 0.00 0.51 0.00 84 1024.8
20260905224905 9 48 0.0 4.8 0.00 0.51 0.00 83 1024.8
20260905224407 10 25 0.0 4.8 0.00 0.51 0.00 83 1024.8
20260905223903 10 25 0.0 4.8 0.00 0.51 0.00 83 1024.8
20260905223404 10 27 0.0 3.2 0.00 0.51 0.00 83 1024.8
20260905222904 10 358 0.0 3.2 0.00 0.51 0.00 82 1024.8
20260905222403 10 358 0.0 3.2 0.00 0.51 0.00 82 1024.8
20260905221902 10 348 0.0 3.2 0.00 0.51 0.00 82 1024.8
20260905221401 10 348 0.0 3.2 0.00 0.51 0.00 82 1024.8
20260905220903 11 348 0.0 1.6 0.00 0.51 0.00 82 1024.8
20260905220402 10 348 0.0 1.6 0.00 0.51 0.00 82 1024.8
20260905215400 10 353 0.0 6.4 0.00 0.51 0.51 84 1024.6
20260905214859 10 353 0.0 6.4 0.00 0.51 0.51 84 1024.5
20260905214400 10 358 0.0 3.2 0.00 0.51 0.51 84 1024.5
20260905213900 10 23 0.0 1.6 0.00 0.51 0.51 84 1024.5
20260905212857 10 23 0.0 3.2 0.00 0.51 0.51 84 1024.4
20260905212356 10 24 0.0 3.2 0.00 0.51 0.51 84 1024.4
20260905211854 10 23 0.0 3.2 0.00 0.51 0.51 84 1024.4
20260905211354 10 23 0.0 3.2 0.00 0.51 0.51 84 1024.3
20260905210852 10 342 0.0 3.2 0.00 0.51 0.51 84 1024.3
20260905205853 10 293 0.0 1.6 0.00 0.51 0.51 84 1024.3
20260905205353 10 292 0.0 1.6 0.00 0.51 0.51 84 1024.2
20260905204351 10 289 0.0 0.0 0.00 0.51 0.51 84 1024.2
20260905203851 10 289 0.0 0.0 0.00 0.51 0.51 84 1024.1
20260905203347 10 289 0.0 0.0 0.00 0.51 0.51 83 1024.0
20260905202846 10 289 0.0 0.0 0.00 0.51 0.51 83 1024.0
20260905202347 10 288 0.0 0.0 0.00 0.51 0.51 83 1023.9
20260905201846 10 287 0.0 0.0 0.00 0.51 0.51 83 1023.8
20260905201347 11 353 0.0 0.0 0.00 0.51 0.51 83 1023.8
20260905200848 11 289 0.0 0.0 0.00 0.51 0.51 83 1023.9
20260905200346 11 288 0.0 0.0 0.00 0.51 0.51 82 1023.9
20260905195846 11 288 0.0 0.0 0.00 0.51 0.51 82 1023.9
20260905195349 11 289 0.0 0.0 0.00 0.51 0.51 81 1023.7
20260905194851 11 289 0.0 0.0 0.00 0.51 0.51 81 1023.7
20260905194342 12 289 0.0 0.0 0.00 0.51 0.51 81 1023.6
20260905193842 12 288 0.0 4.8 0.00 0.51 0.51 80 1023.4
20260905193343 12 353 0.0 4.8 0.00 0.51 0.51 79 1023.3
20260905192843 12 287 0.0 0.0 0.00 0.51 0.51 78 1023.2
20260905192341 12 285 0.0 6.4 0.00 0.51 0.51 78 1023.1
20260905191841 13 284 0.0 6.4 0.00 0.51 0.51 78 1023.1
20260905190343 14 330 0.0 3.2 0.00 0.51 0.51 74 1023.0
20260905185839 15 353 0.0 0.0 0.00 0.51 0.51 72 1022.9
20260905184838 16 353 0.0 1.6 0.00 0.51 0.51 68 1022.8
20260905184337 16 353 0.0 4.8 0.00 0.51 0.51 67 1022.7
20260905183337 16 326 1.6 8.0 0.00 0.51 0.51 65 1022.5
20260905182836 16 344 1.6 9.7 0.00 0.51 0.51 64 1022.3
20260905182337 16 301 3.2 11.3 0.00 0.51 0.51 64 1022.3
20260905181332 17 353 1.6 16.1 0.00 0.51 0.51 64 1022.2
20260905180835 17 322 3.2 16.1 0.00 0.51 0.51 64 1022.1
20260905175822 17 293 1.6 6.4 0.00 0.51 0.51 64 1022.0
20260905175319 17 281 1.6 6.4 0.00 0.51 0.51 64 1022.0
20260905174813 17 32 3.2 14.5 0.00 0.51 0.51 63 1021.9
20260905174311 17 35 3.2 14.5 0.00 0.51 0.51 62 1021.9
20260905173811 18 336 3.2 14.5 0.00 0.51 0.51 62 1021.8
20260905173312 18 337 3.2 11.3 0.00 0.51 0.51 61 1021.8
20260905172810 18 313 3.2 14.5 0.00 0.51 0.51 61 1021.6
20260905172311 18 92 3.2 14.5 0.00 0.51 0.51 61 1021.5
20260905171807 18 36 3.2 14.5 0.00 0.51 0.51 61 1021.5
20260905171305 18 312 3.2 14.5 0.00 0.51 0.51 60 1021.4
20260905170807 18 353 3.2 12.9 0.00 0.51 0.51 59 1021.3
20260905170319 18 264 4.8 19.3 0.00 0.51 0.51 59 1021.2
20260905165803 18 353 4.8 19.3 0.00 0.51 0.51 60 1021.1
20260905165306 18 309 4.8 19.3 0.00 0.51 0.51 59 1021.1
20260905164302 18 236 4.8 16.1 0.00 0.51 0.51 60 1021.0
20260905163802 18 353 4.8 22.5 0.00 0.51 0.51 59 1021.0
20260905163302 19 313 4.8 22.5 0.00 0.51 0.51 59 1020.9
20260905162802 19 333 4.8 24.1 0.00 0.51 0.51 58 1020.8
20260905162305 19 271 4.8 24.1 0.00 0.51 0.51 58 1020.8
20260905161802 19 251 6.4 20.9 0.00 0.51 0.51 58 1020.8
20260905161302 19 358 6.4 20.9 0.00 0.51 0.51 57 1020.7
20260905160802 19 188 6.4 14.5 0.00 0.51 0.51 57 1020.7
20260905160305 20 268 6.4 17.7 0.00 0.51 0.51 58 1020.6
20260905155805 20 80 6.4 19.3 0.00 0.51 0.51 58 1020.6
20260905154802 20 317 6.4 19.3 0.00 0.51 0.51 58 1020.6
20260905153802 20 23 6.4 29.0 0.00 0.51 0.51 57 1020.5
20260905153302 20 343 6.4 29.0 0.00 0.51 0.51 59 1020.5
20260905152801 20 260 4.8 14.5 0.00 0.51 0.51 63 1020.5
20260905151803 20 241 4.8 16.1 0.00 0.51 0.51 64 1020.5
20260905151302 20 104 4.8 20.9 0.00 0.51 0.51 66 1020.4
20260905150805 20 151 4.8 22.5 0.00 0.51 0.51 66 1020.4
20260905150302 19 37 6.4 24.1 0.00 0.51 0.51 67 1020.4
20260905145306 20 46 6.4 22.5 0.00 0.51 0.51 65 1020.4
20260905144305 20 123 8.0 25.7 0.00 0.51 0.51 65 1020.4
20260905143805 20 329 6.4 17.7 0.00 0.51 0.51 65 1020.4
20260905143306 20 89 3.2 17.7 0.00 0.51 0.51 67 1020.3
20260905142803 20 55 3.2 20.9 0.00 0.51 0.51 66 1020.4
20260905142305 20 54 6.4 20.9 0.00 0.51 0.51 66 1020.4
20260905141802 20 84 8.0 25.7 0.00 0.51 0.51 66 1020.3
20260905141301 20 330 9.7 25.7 0.00 0.51 0.51 64 1020.3
20260905140303 20 344 4.8 19.3 0.00 0.51 0.51 70 1020.4
20260905135802 19 86 3.2 17.7 0.00 0.51 0.51 70 1020.5
20260905134302 19 66 4.8 17.7 0.00 0.51 0.51 71 1020.5
20260905133802 18 92 4.8 17.7 0.00 0.51 0.51 69 1020.6
20260905132804 19 321 6.4 19.3 0.00 0.51 0.51 69 1020.7
20260905132306 19 312 6.4 19.3 0.00 0.51 0.51 68 1020.6
20260905131805 19 310 4.8 19.3 0.00 0.51 0.51 68 1020.8
20260905131305 19 329 6.4 19.3 0.00 0.51 0.51 69 1020.7
20260905130806 19 97 6.4 24.1 0.00 0.51 0.51 68 1020.7
20260905125805 19 6 4.8 16.1 0.00 0.51 0.51 69 1020.7
20260905125305 18 358 3.2 14.5 0.00 0.51 0.51 72 1020.8
20260905123802 17 35 4.8 20.9 0.00 0.51 0.51 73 1021.0
20260905123302 17 39 4.8 20.9 0.00 0.51 0.51 73 1021.0
20260905122307 18 344 6.4 19.3 0.00 0.51 0.51 72 1021.1
20260905121802 18 312 6.4 17.7 0.00 0.51 0.51 73 1021.1
20260905121302 17 358 6.4 20.9 0.00 0.51 0.51 74 1021.1
20260905120802 18 353 8.0 20.9 0.00 0.51 0.51 71 1021.1
20260905120303 18 312 8.0 25.7 0.00 0.51 0.51 72 1021.2
20260905115758 18 341 6.4 25.7 0.00 0.51 0.51 71 1021.2
20260905115252 18 294 6.4 20.9 0.00 0.51 0.51 71 1021.2
20260905114746 18 249 6.4 20.9 0.00 0.51 0.51 73 1021.2
20260905114240 17 319 6.4 20.9 0.00 0.51 0.51 74 1021.3
20260905113734 17 92 4.8 17.7 0.00 0.51 0.51 75 1021.2
20260905113233 17 312 4.8 14.5 0.00 0.51 0.51 78 1021.3
20260905112734 16 353 6.4 16.1 0.00 0.51 0.51 77 1021.3
20260905112234 16 260 4.8 16.1 0.00 0.51 0.51 75 1021.4
20260905111734 17 279 4.8 16.1 0.00 0.51 0.51 75 1021.4
20260905111232 17 295 4.8 20.9 0.00 0.51 0.51 75 1021.3
20260905105731 17 186 4.8 20.9 0.00 0.51 0.51 76 1021.2
20260905104731 17 21 4.8 27.4 0.00 0.51 0.51 75 1021.3
20260905104232 17 82 4.8 17.7 0.00 0.51 0.51 78 1021.3
20260905103731 16 110 6.4 17.7 0.00 0.51 0.51 77 1021.3
20260905103232 16 106 6.4 24.1 0.00 0.51 0.51 78 1021.3
20260905102731 16 306 6.4 24.1 0.00 0.51 0.51 79 1021.4
20260905102231 16 266 4.8 14.5 0.00 0.51 0.51 79 1021.4
20260905101231 15 314 4.8 16.1 0.00 0.51 0.51 80 1021.4
20260905100731 15 9 4.8 17.7 0.00 0.51 0.51 80 1021.4
20260905095731 15 321 6.4 22.5 0.00 0.51 0.51 80 1021.4
20260905095244 16 358 6.4 30.6 0.00 0.51 0.51 79 1021.4
20260905094730 16 295 6.4 30.6 0.00 0.51 0.51 77 1021.5
20260905094245 16 72 4.8 14.5 0.00 0.51 0.51 79 1021.2
20260905093230 15 304 6.4 22.5 0.00 0.51 0.51 81 1021.2
20260905092230 15 353 4.8 20.9 0.00 0.51 0.51 80 1021.3
20260905091732 16 2 3.2 20.9 0.00 0.51 0.51 80 1021.3
20260905091233 16 312 3.2 11.3 0.00 0.51 0.51 81 1021.3
20260905090233 16 13 6.4 20.9 0.00 0.51 0.51 80 1021.3
20260905085733 16 85 6.4 20.9 0.00 0.51 0.51 80 1021.3
20260905085232 16 288 4.8 20.9 0.00 0.51 0.51 80 1021.2
20260905084733 16 42 4.8 19.3 0.00 0.51 0.51 81 1021.2
20260905084232 16 334 6.4 19.3 0.00 0.51 0.51 82 1021.0
20260905083733 16 233 6.4 19.3 0.00 0.51 0.51 82 1021.1
20260905083236 16 353 6.4 17.7 0.00 0.51 0.51 82 1020.9
20260905082731 16 341 6.4 25.7 0.00 0.51 0.51 82 1020.9
20260905082231 16 323 6.4 25.7 0.00 0.51 0.51 82 1020.9
20260905081819 15 46 4.8 16.1 0.00 0.51 0.51 83 1020.8
20260905081231 15 353 4.8 16.1 0.00 0.51 0.51 83 1020.7
20260905080231 15 282 3.2 14.5 0.00 0.51 0.51 84 1020.7
20260905075732 15 215 3.2 14.5 0.00 0.51 0.51 83 1020.7
20260905075231 14 79 3.2 11.3 0.00 0.51 0.51 82 1020.7
20260905074230 13 96 3.2 14.5 0.00 0.51 0.51 82 1020.5
20260905073230 13 353 3.2 8.0 0.00 0.51 0.51 78 1020.4
20260905072731 13 7 1.6 8.0 0.00 0.51 0.51 78 1020.4
20260905072230 13 110 1.6 12.9 0.00 0.51 0.51 77 1020.4
20260905071231 12 52 3.2 11.3 0.00 0.51 0.51 75 1020.3
20260905070732 12 45 4.8 9.7 0.00 0.51 0.51 75 1020.3
20260905070232 12 71 3.2 9.7 0.00 0.51 0.51 73 1020.3
20260905065732 12 67 3.2 9.7 0.00 0.51 0.51 73 1020.3
20260905064731 12 73 1.6 6.4 0.00 0.51 0.51 73 1020.1
20260905063732 12 72 1.6 8.0 0.00 0.51 0.51 69 1020.0
20260905063232 12 67 1.6 8.0 0.00 0.51 0.51 67 1019.8
20260905062731 12 358 0.0 4.8 0.00 0.51 0.51 66 1019.8
20260905061731 11 8 0.0 0.0 0.00 0.51 0.51 66 1019.6
20260905061230 11 8 0.0 0.0 0.00 0.51 0.51 67 1019.4
20260905060730 11 8 0.0 4.8 0.00 0.51 0.51 68 1019.4
20260905060235 11 8 0.0 4.8 0.00 0.51 0.51 69 1019.5
20260905055732 11 6 0.0 0.0 0.03 0.51 0.51 71 1019.4
20260905055230 10 6 0.0 0.0 0.03 0.51 0.51 72 1019.3
20260905054730 10 6 0.0 0.0 0.05 0.51 0.51 73 1019.3
20260905054230 10 6 0.0 0.0 0.05 0.51 0.51 74 1019.2
20260905053729 10 6 0.0 0.0 0.05 0.51 0.51 74 1019.2
20260905053230 10 6 0.0 1.6 0.08 0.51 0.51 75 1019.2
20260905051733 10 6 0.0 1.6 0.13 0.51 0.51 77 1019.2
20260905051234 10 6 0.0 0.0 0.15 0.51 0.51 78 1019.1
20260905050730 10 6 0.0 3.2 0.15 0.51 0.51 78 1019.2
20260905050230 10 6 0.0 3.2 0.18 0.51 0.51 79 1019.2
20260905045730 10 353 0.0 4.8 0.18 0.48 0.48 79 1019.3
20260905045230 10 353 1.6 6.4 0.20 0.48 0.48 79 1019.3
20260905044731 10 335 1.6 6.4 0.23 0.46 0.46 80 1019.1
20260905044230 10 222 1.6 6.4 0.25 0.46 0.43 79 1019.0
20260905043730 10 324 1.6 8.0 0.28 0.43 0.43 80 1018.8
20260905042731 10 333 1.6 8.0 0.28 0.41 0.41 81 1018.9
20260905042230 10 348 1.6 8.0 0.28 0.38 0.38 81 1019.1
20260905041733 10 326 1.6 8.0 0.30 0.38 0.36 82 1019.0
20260905041230 10 348 1.6 8.0 0.30 0.36 0.33 83 1019.0
20260905040731 10 348 0.0 4.8 0.28 0.33 0.33 83 1019.1
20260905040229 10 358 0.0 3.2 0.28 0.33 0.30 84 1019.2
20260905035730 10 358 1.6 6.4 0.25 0.30 0.28 84 1019.3
20260905034731 10 314 1.6 6.4 0.20 0.23 0.23 84 1019.7
20260905034230 11 341 0.0 4.8 0.15 0.20 0.18 83 1019.5
20260905033230 11 42 1.6 8.0 0.10 0.15 0.13 82 1019.3
20260905032732 12 312 3.2 8.0 0.08 0.13 0.13 82 1019.1
20260905032229 12 343 3.2 8.0 0.05 0.10 0.10 82 1018.9
20260905031733 12 348 3.2 14.5 0.05 0.08 0.08 82 1019.3
20260905031236 13 358 1.6 14.5 0.05 0.05 0.05 81 1019.2
20260905030233 13 83 3.2 11.3 0.05 0.05 0.05 76 1018.9
20260905025732 14 142 6.4 20.9 0.05 0.05 0.05 76 1018.7
20260905025232 14 353 4.8 20.9 0.05 0.05 0.05 80 1018.6
20260905024232 15 87 1.6 9.7 0.05 0.05 0.05 82 1018.0
20260905023734 15 353 0.0 4.8 0.05 0.05 0.05 82 1018.2